Location: The Saddle
(36.8333°N, 80.3417°W)
Time: 17:02:22
(UTC-05:00)

Transit 2A Rocket - All Passes

Search period start: 30 January 2023 00:00
Search period end: 09 February 2023 00:00
Orbit: 585 x 915 km, 66.7° (Epoch: 30 January)

Date Brightness Start Highest point End Pass type
(mag) Time Alt. Az. Time Alt. Az. Time Alt. Az.
30 Jan - 01:32:24 10° WSW 01:36:42 31° NW 01:41:24 10° N night (unlit)
30 Jan - 08:35:06 10° N 08:39:34 21° NE 08:44:03 10° E daylight
30 Jan - 10:16:40 10° NNW 10:22:42 70° WSW 10:28:43 10° SSE daylight
30 Jan - 23:08:50 10° SE 23:11:34 15° ESE 23:14:26 10° ENE night (unlit)
31 Jan - 00:48:45 10° SW 00:53:27 54° WNW 00:58:40 10° NNE night (unlit)
31 Jan - 07:53:11 10° NNE 07:56:01 13° NE 07:58:52 10° ENE daylight
31 Jan - 09:33:35 10° NNW 09:39:39 71° ENE 09:45:43 10° SE daylight
31 Jan - 11:17:55 10° WNW 11:21:38 17° WSW 11:25:20 10° SW daylight
01 Feb - 00:05:37 10° SSW 00:10:22 82° ESE 00:15:40 10° NNE night (unlit)
01 Feb - 01:51:02 10° WNW 01:53:45 14° NW 01:56:35 10° NNW night (unlit)
01 Feb - 08:50:44 10° NNW 08:56:28 43° ENE 09:02:14 10° SE daylight
01 Feb - 10:33:42 10° NW 10:38:53 30° WSW 10:44:01 10° SSW daylight
01 Feb - 23:22:58 10° S 23:27:27 43° ESE 23:32:23 10° NE night (unlit)
02 Feb - 01:06:19 10° WSW 01:10:14 23° NW 01:14:29 10° N night (unlit)
02 Feb - 08:08:05 10° N 08:13:10 27° NE 08:18:16 10° ESE daylight
02 Feb - 09:50:09 10° NW 09:56:02 51° WSW 10:01:51 10° S daylight
02 Feb - 22:40:58 10° SSE 22:44:41 23° ESE 22:48:40 10° NE night (unlit)
03 Feb - 00:22:21 10° SW 00:26:54 39° NW 00:31:54 10° NNE night (unlit)
03 Feb - 07:25:47 10° N 07:29:42 17° NE 07:33:39 10° E daylight
03 Feb - 09:06:56 10° NNW 09:13:03 86° WSW 09:19:07 10° SSE daylight
03 Feb - 10:52:54 10° W 10:54:46 11° W 10:56:38 10° WSW daylight
03 Feb - 22:00:26 10° ESE 22:02:02 12° E 22:03:41 10° E night (unlit)
03 Feb - 23:38:55 10° SW 23:43:43 70° WNW 23:49:03 10° NNE night (unlit)
04 Feb - 01:26:11 10° NW 01:27:26 11° NW 01:28:42 10° NNW night (unlit)
04 Feb - 06:44:26 10° NNE 06:46:05 11° NE 06:47:45 10° ENE visible
04 Feb - 08:23:57 10° NNW 08:29:57 58° ENE 08:35:55 10° SE daylight
04 Feb - 10:07:38 10° WNW 10:12:06 21° WSW 10:16:30 10° SSW daylight
04 Feb - 22:55:58 10° SSW 23:00:41 63° ESE 23:05:57 10° NNE night (unlit)
05 Feb - 00:40:28 10° W 00:43:50 18° NW 00:47:25 10° N night (unlit)
05 Feb - 07:41:11 10° N 07:46:42 35° NE 07:52:14 10° ESE daylight
05 Feb - 09:23:46 10° NW 09:29:18 37° WSW 09:34:46 10° S daylight
05 Feb - 22:13:33 10° S 22:17:50 33° ESE 22:22:30 10° NE night (unlit)
05 Feb - 23:56:06 10° WSW 00:00:23 28° NW 00:05:03 10° N night (unlit)
06 Feb - 06:58:38 10° N 07:03:20 23° NE 07:08:01 10° E daylight
06 Feb - 08:40:22 10° NW 08:46:23 64° WSW 08:52:20 10° SSE daylight
06 Feb - 21:31:56 10° SE 21:35:07 18° ESE 21:38:29 10° ENE night (unlit)
06 Feb - 23:12:22 10° SW 23:17:06 49° WNW 23:22:20 10° NNE night (unlit)
07 Feb - 06:16:33 10° N 06:19:48 15° NE 06:23:03 10° ENE visible
07 Feb - 07:57:15 10° NNW 08:03:21 78° ENE 08:09:25 10° SSE daylight
07 Feb - 09:41:57 10° WNW 09:45:14 15° WSW 09:48:31 10° SW daylight
07 Feb - 22:29:08 10° SSW 22:33:58 89° WNW 22:39:23 10° NNE night (unlit)
08 Feb - 00:14:58 10° WNW 00:17:28 13° NW 00:20:04 10° NNW night (unlit)
08 Feb - 07:14:20 10° NNW 07:20:12 47° ENE 07:26:01 10° SE daylight
08 Feb - 08:57:32 10° NW 09:02:31 27° WSW 09:07:26 10° SSW daylight
08 Feb - 21:46:23 10° S 21:51:01 49° ESE 21:56:09 10° NE night (unlit)
08 Feb - 23:30:03 10° W 23:33:55 22° NW 23:38:04 10° N night (unlit)
